Tiempo cada hora Allan

Hoy, 31 Julio, Sábado

Tiempo Temperatura Precipitaciones Viento Presión Humedad
00:00 +19°C° 0 mm 2 mps 720 mmHg 40%
01:00 +18°C° 0 mm 2 mps 720 mmHg 41%
02:00 +17°C° 0 mm 2 mps 720 mmHg 42%
03:00 +18°C° 0 mm 1 mps 720 mmHg 43%
04:00 +18°C° 0 mm 1 mps 721 mmHg 44%
05:00 +16°C° 0 mm 1 mps 721 mmHg 46%
06:00 +20°C° 0 mm 1 mps 721 mmHg 41%
07:00 +23°C° 0 mm 2 mps 722 mmHg 36%
08:00 +25°C° 0 mm 2 mps 722 mmHg 31%
09:00 +27°C° 0 mm 2 mps 722 mmHg 29%
10:00 +28°C° 0 mm 2 mps 722 mmHg 26%
11:00 +30°C° 0 mm 2 mps 722 mmHg 23%
12:00 +31°C° 0 mm 2 mps 722 mmHg 21%
13:00 +33°C° 0 mm 3 mps 722 mmHg 20%
14:00 +33°C° 0 mm 3 mps 722 mmHg 19%
15:00 +33°C° 0 mm 3 mps 721 mmHg 19%
16:00 +33°C° 0 mm 3 mps 721 mmHg 19%
17:00 +33°C° 0 mm 3 mps 720 mmHg 19%
18:00 +30°C° 0 mm 2 mps 720 mmHg 23%
19:00 +28°C° 0 mm 2 mps 720 mmHg 27%
20:00 +25°C° 0 mm 2 mps 720 mmHg 31%
21:00 +24°C° 0 mm 2 mps 720 mmHg 34%
22:00 +22°C° 0 mm 3 mps 720 mmHg 37%
23:00 +20°C° 0 mm 3 mps 720 mmHg 41%

Mañana, 1 Agosto, Domingo

Tiempo Temperatura Precipitaciones Viento Presión Humedad
00:00 +20°C° 0 mm 3 mps 720 mmHg 42%
01:00 +19°C° 0 mm 3 mps 720 mmHg 43%
02:00 +18°C° 0 mm 3 mps 720 mmHg 45%
03:00 +18°C° 0 mm 2 mps 720 mmHg 45%
04:00 +18°C° 0 mm 2 mps 720 mmHg 45%
05:00 +18°C° 0 mm 2 mps 720 mmHg 46%
06:00 +21°C° 0 mm 2 mps 720 mmHg 40%
07:00 +25°C° 0 mm 2 mps 720 mmHg 34%
08:00 +28°C° 0 mm 1 mps 721 mmHg 28%
09:00 +30°C° 0 mm 1 mps 720 mmHg 24%
10:00 +32°C° 0 mm 1 mps 720 mmHg 21%
11:00 +32°C° 0 mm 0 mps 720 mmHg 18%
12:00 +35°C° 0 mm 1 mps 720 mmHg 17%
13:00 +36°C° 0 mm 1 mps 719 mmHg 16%
14:00 +37°C° 0 mm 2 mps 719 mmHg 16%
15:00 +37°C° 0 mm 2 mps 718 mmHg 16%
16:00 +37°C° 0 mm 2 mps 718 mmHg 16%
17:00 +37°C° 0 mm 2 mps 718 mmHg 16%
18:00 +34°C° 0 mm 2 mps 717 mmHg 19%
19:00 +31°C° 0 mm 2 mps 717 mmHg 22%
20:00 +29°C° 0 mm 2 mps 716 mmHg 25%
21:00 +28°C° 0 mm 2 mps 716 mmHg 25%
22:00 +27°C° 0 mm 3 mps 716 mmHg 26%
23:00 +26°C° 0 mm 3 mps 716 mmHg 26%

Pasado mañana, 2 Agosto, Lunes

Tiempo Temperatura Precipitaciones Viento Presión Humedad
00:00 +26°C° 0 mm 3 mps 716 mmHg 27%
01:00 +25°C° 0 mm 3 mps 716 mmHg 28%
02:00 +25°C° 0 mm 3 mps 716 mmHg 29%
03:00 +24°C° 0 mm 2 mps 716 mmHg 29%
04:00 +24°C° 0 mm 2 mps 716 mmHg 30%
05:00 +23°C° 0 mm 2 mps 716 mmHg 30%
06:00 +26°C° 0 mm 2 mps 717 mmHg 27%
07:00 +29°C° 0 mm 2 mps 717 mmHg 23%
08:00 +31°C° 0 mm 2 mps 717 mmHg 20%
09:00 +34°C° 0 mm 3 mps 717 mmHg 18%
10:00 +36°C° 0 mm 3 mps 717 mmHg 17%
11:00 +38°C° 0 mm 3 mps 717 mmHg 15%
12:00 +40°C° 0 mm 4 mps 716 mmHg 15%
13:00 +40°C° 0 mm 4 mps 716 mmHg 14%
14:00 +41°C° 0 mm 4 mps 716 mmHg 14%
15:00 +41°C° 0 mm 4 mps 715 mmHg 14%
16:00 +41°C° 0 mm 4 mps 715 mmHg 14%
17:00 +41°C° 0 mm 4 mps 714 mmHg 14%
18:00 +38°C° 0 mm 3 mps 714 mmHg 16%
19:00 +36°C° 0 mm 3 mps 714 mmHg 18%
20:00 +34°C° 0 mm 3 mps 714 mmHg 20%
21:00 +31°C° 0 mm 2 mps 714 mmHg 22%
22:00 +29°C° 0 mm 2 mps 714 mmHg 25%
23:00 +28°C° 0 mm 2 mps 713 mmHg 27%

3 Agosto, Martes

Tiempo Temperatura Precipitaciones Viento Presión Humedad
00:00 +27°C° 0 mm 2 mps 713 mmHg 27%
01:00 +27°C° 0 mm 2 mps 713 mmHg 28%
02:00 +26°C° 0 mm 3 mps 713 mmHg 28%
03:00 +26°C° 0 mm 3 mps 713 mmHg 27%
04:00 +26°C° 0 mm 3 mps 713 mmHg 26%
05:00 +26°C° 0 mm 3 mps 713 mmHg 25%
06:00 +28°C° 0 mm 3 mps 713 mmHg 23%
07:00 +31°C° 0 mm 3 mps 713 mmHg 21%
08:00 +34°C° 0 mm 3 mps 714 mmHg 18%
09:00 +35°C° 0 mm 3 mps 713 mmHg 17%
10:00 +36°C° 0 mm 3 mps 713 mmHg 16%
11:00 +38°C° 0 mm 3 mps 713 mmHg 15%
12:00 +38°C° 0 mm 3 mps 713 mmHg 15%
13:00 +38°C° 0 mm 3 mps 713 mmHg 14%
14:00 +40°C° 0 mm 4 mps 712 mmHg 14%
15:00 +40°C° 0 mm 4 mps 712 mmHg 13%
16:00 +38°C° 0 mm 4 mps 712 mmHg 13%
17:00 +39°C° 0 mm 5 mps 711 mmHg 12%
18:00 +37°C° 0 mm 5 mps 711 mmHg 17%
19:00 +35°C° 0 mm 6 mps 711 mmHg 22%
20:00 +33°C° 0 mm 7 mps 711 mmHg 26%
21:00 +32°C° 0 mm 5 mps 711 mmHg 30%
22:00 +30°C° 0 mm 4 mps 711 mmHg 33%
23:00 +28°C° 0 mm 3 mps 710 mmHg 36%

4 Agosto, Miércoles

Tiempo Temperatura Precipitaciones Viento Presión Humedad
00:00 +27°C° 0.1 mm 3 mps 710 mmHg 40%
01:00 +26°C° 0.1 mm 3 mps 710 mmHg 44%
02:00 +25°C° 0.1 mm 2 mps 710 mmHg 49%
03:00 +24°C° 0 mm 3 mps 710 mmHg 54%
04:00 +22°C° 0 mm 3 mps 710 mmHg 59%
05:00 +21°C° 0 mm 3 mps 710 mmHg 65%
06:00 +23°C° 0 mm 4 mps 711 mmHg 51%
07:00 +27°C° 0 mm 6 mps 711 mmHg 36%
08:00 +30°C° 0 mm 7 mps 712 mmHg 22%
09:00 +32°C° 0 mm 7 mps 712 mmHg 21%
10:00 +34°C° 0 mm 8 mps 712 mmHg 20%
11:00 +35°C° 0 mm 8 mps 712 mmHg 20%
12:00 +37°C° 0 mm 8 mps 713 mmHg 20%
13:00 +37°C° 0 mm 8 mps 713 mmHg 21%
14:00 +37°C° 0 mm 8 mps 713 mmHg 21%
15:00 +35°C° 0 mm 9 mps 713 mmHg 25%
16:00 +33°C° 0 mm 9 mps 713 mmHg 28%
17:00 +32°C° 0 mm 10 mps 714 mmHg 32%
18:00 +28°C° 0 mm 9 mps 714 mmHg 38%
19:00 +24°C° 0 mm 8 mps 715 mmHg 44%
20:00 +22°C° 0 mm 6 mps 716 mmHg 51%
21:00 +20°C° 0 mm 6 mps 716 mmHg 56%
22:00 +17°C° 0 mm 6 mps 716 mmHg 61%
23:00 +15°C° 0 mm 5 mps 717 mmHg 66%

5 Agosto, Jueves

Tiempo Temperatura Precipitaciones Viento Presión Humedad
00:00 +14°C° 0 mm 4 mps 717 mmHg 70%
01:00 +13°C° 0 mm 3 mps 717 mmHg 74%
02:00 +12°C° 0 mm 3 mps 717 mmHg 78%
03:00 +11°C° 0 mm 3 mps 718 mmHg 81%
04:00 +10°C° 0 mm 3 mps 718 mmHg 83%
05:00 +10°C° 0 mm 2 mps 718 mmHg 85%
06:00 +11°C° 0 mm 3 mps 718 mmHg 72%
07:00 +13°C° 0 mm 4 mps 719 mmHg 59%
08:00 +15°C° 0 mm 4 mps 719 mmHg 47%
09:00 +18°C° 0 mm 4 mps 719 mmHg 40%
10:00 +20°C° 0 mm 4 mps 719 mmHg 33%
11:00 +22°C° 0 mm 3 mps 718 mmHg 26%
12:00 +25°C° 0 mm 3 mps 718 mmHg 24%
13:00 +26°C° 0 mm 3 mps 717 mmHg 22%
14:00 +28°C° 0 mm 3 mps 717 mmHg 20%
15:00 +28°C° 0 mm 3 mps 716 mmHg 20%
16:00 +29°C° 0 mm 3 mps 716 mmHg 20%
17:00 +29°C° 0 mm 3 mps 715 mmHg 20%
18:00 +27°C° 0 mm 3 mps 715 mmHg 23%
19:00 +26°C° 0 mm 3 mps 714 mmHg 25%
20:00 +24°C° 0 mm 3 mps 714 mmHg 28%
21:00 +22°C° 0 mm 3 mps 714 mmHg 30%
22:00 +21°C° 0 mm 3 mps 713 mmHg 31%
23:00 +20°C° 0 mm 4 mps 713 mmHg 33%
Mostrar más

Necesitamos Su Consentimiento

Meteoprog y nuestros Proveedores de Servicios pueden almacenar y acceder a sus datos personales como cookies, identificadores de dispositivo u otras tecnologías similares de su dispositivo y procesar dichos datos para personalizar contenido y anuncios, además de ofrecer funciones de redes sociales y analizar el tráfico.

  • Almacenar y/o acceder a información en su dispositivo

    Se puede almacenar o acceder a cookies, identificadores de dispositivo u otra información de su dispositivo para los fines anteriormente indicados.

  • Anuncios y contenido personalizados, medición de anuncios y contenido, percepciones del público, y desarrollo de productos

    Los anuncios y el contenido pueden personalizarse en base a su perfil. Se pueden añadir más datos para personalizar mejor los anuncios y contenidos. Se puede medir el rendimiento de los anuncios y contenidos. Se puede obtener la percepción sobre el público que ha visto los anuncios y contenidos. Dichos datos pueden usarse para desarrollar o mejorar la experiencia del usuario, sistemas y software.

Al hacer clic en ‘Estoy De Acuerdo’ usted permitirá el uso de las cookies, identificadores de dispositivo, balizas web u otras tecnologías similares indicadas. Su configuración puede cambiarse desde el navegador de su dispositivo.

Para ciertos fines, los intereses legítimos pueden ser considerados por encima del consentimiento. Puede leer más sobre ello en nuestra Política de Privacidad y Cookies.